| time (UTC) | temp F | wind direction | speed knots | gust knots | rain 1hr in | rain 24hr in | rain mn in | humidity % | barometer mb |
| 20260502203757 | 59 | 233 | 1.7 | 3.5 | 0.00 | 0.00 | 0.00 | 50 | 1018.0 |
| 20260502202752 | 59 | 227 | 1.7 | 2.6 | 0.00 | 0.00 | 0.00 | 50 | 1018.0 |
| 20260502201753 | 60 | 223 | 1.7 | 3.5 | 0.00 | 0.00 | 0.00 | 48 | 1018.0 |
| 20260502200748 | 61 | 217 | 0.9 | 2.6 | 0.00 | 0.00 | 0.00 | 45 | 1017.9 |
| 20260502195746 | 62 | 229 | 1.7 | 3.5 | 0.00 | 0.00 | 0.00 | 43 | 1017.9 |
| 20260502194744 | 62 | 225 | 1.7 | 3.5 | 0.00 | 0.00 | 0.00 | 42 | 1017.7 |
| 20260502193741 | 63 | 220 | 0.9 | 3.5 | 0.00 | 0.00 | 0.00 | 42 | 1017.7 |
| 20260502192740 | 64 | 205 | 0.9 | 2.6 | 0.00 | 0.00 | 0.00 | 40 | 1017.7 |
| 20260502191748 | 65 | 227 | 1.7 | 4.3 | 0.00 | 0.00 | 0.00 | 40 | 1017.6 |
| 20260502190738 | 65 | 225 | 1.7 | 3.5 | 0.00 | 0.00 | 0.00 | 39 | 1017.5 |
| 20260502185736 | 66 | 228 | 1.7 | 4.3 | 0.00 | 0.00 | 0.00 | 38 | 1017.4 |
| 20260502184734 | 67 | 222 | 2.6 | 5.2 | 0.00 | 0.00 | 0.00 | 36 | 1017.4 |
| 20260502183730 | 67 | 226 | 1.7 | 3.5 | 0.00 | 0.00 | 0.00 | 34 | 1017.3 |
| 20260502182728 | 68 | 220 | 1.7 | 4.3 | 0.00 | 0.00 | 0.00 | 33 | 1017.3 |
| 20260502181727 | 69 | 219 | 2.6 | 5.2 | 0.00 | 0.00 | 0.00 | 33 | 1017.3 |
| 20260502180725 | 69 | 216 | 1.7 | 3.5 | 0.00 | 0.00 | 0.00 | 32 | 1017.3 |
| 20260502163705 | 74 | 235 | 1.7 | 2.6 | 0.00 | 0.00 | 0.00 | 24 | 1017.7 |
| 20260502162703 | 74 | 270 | 1.7 | 3.5 | 0.00 | 0.00 | 0.00 | 24 | 1017.7 |
| 20260502161701 | 74 | 249 | 1.7 | 4.3 | 0.00 | 0.00 | 0.00 | 25 | 1017.9 |
| 20260502160659 | 74 | 270 | 1.7 | 4.3 | 0.00 | 0.00 | 0.00 | 28 | 1017.9 |
| 20260502151730 | 74 | 244 | 1.7 | 4.3 | 0.00 | 0.00 | 0.00 | 32 | 1018.3 |
| 20260502150650 | 74 | 256 | 1.7 | 3.5 | 0.00 | 0.00 | 0.00 | 34 | 1018.4 |
| 20260502130626 | 74 | 315 | 1.7 | 6.1 | 0.00 | 0.00 | 0.00 | 36 | 1020.1 |
| 20260502123618 | 74 | 291 | 1.7 | 6.1 | 0.00 | 0.00 | 0.00 | 40 | 1020.5 |
| 20260502122615 | 74 | 258 | 1.7 | 3.5 | 0.00 | 0.00 | 0.00 | 38 | 1020.7 |
| 20260502121613 | 74 | 311 | 1.7 | 5.2 | 0.00 | 0.00 | 0.00 | 37 | 1020.8 |
| 20260502120612 | 74 | 270 | 1.7 | 3.5 | 0.00 | 0.00 | 0.00 | 38 | 1021.1 |
| 20260502115609 | 74 | 270 | 1.7 | 4.3 | 0.00 | 0.00 | 0.00 | 39 | 1021.2 |
| 20260502114607 | 73 | 270 | 1.7 | 5.2 | 0.00 | 0.00 | 0.00 | 38 | 1021.4 |
| 20260502113605 | 73 | 246 | 1.7 | 5.2 | 0.00 | 0.00 | 0.00 | 36 | 1021.5 |
| 20260502112604 | 73 | 282 | 1.7 | 5.2 | 0.00 | 0.00 | 0.00 | 38 | 1021.6 |
| 20260502111600 | 73 | 306 | 1.7 | 3.5 | 0.00 | 0.00 | 0.00 | 38 | 1021.8 |
| 20260502110559 | 73 | 270 | 1.7 | 3.5 | 0.00 | 0.00 | 0.00 | 40 | 1021.9 |
| 20260502105558 | 73 | 284 | 1.7 | 4.3 | 0.00 | 0.00 | 0.00 | 40 | 1022.0 |
| 20260502104615 | 73 | 270 | 1.7 | 3.5 | 0.00 | 0.00 | 0.00 | 40 | 1022.2 |
| 20260502103554 | 73 | 290 | 1.7 | 3.5 | 0.00 | 0.00 | 0.00 | 39 | 1022.3 |
| 20260502102551 | 73 | 316 | 1.7 | 3.5 | 0.00 | 0.00 | 0.00 | 39 | 1022.4 |
| 20260502101549 | 73 | 295 | 1.7 | 3.5 | 0.00 | 0.00 | 0.00 | 38 | 1022.5 |
| 20260502100547 | 73 | 301 | 1.7 | 3.5 | 0.00 | 0.00 | 0.00 | 40 | 1022.7 |
| 20260502090537 | 72 | 270 | 1.7 | 5.2 | 0.00 | 0.00 | 0.00 | 37 | 1023.1 |
| 20260502071534 | 67 | 204 | 1.7 | 5.2 | 0.00 | 0.00 | 0.00 | 45 | 1023.9 |
| 20260502070516 | 67 | 240 | 2.6 | 4.3 | 0.00 | 0.00 | 0.00 | 48 | 1024.0 |
| 20260502065509 | 67 | 251 | 2.6 | 5.2 | 0.00 | 0.00 | 0.00 | 50 | 1024.0 |
| 20260502064508 | 66 | 251 | 2.6 | 5.2 | 0.00 | 0.00 | 0.00 | 51 | 1024.1 |
| 20260502063527 | 65 | 257 | 3.5 | 5.2 | 0.00 | 0.00 | 0.00 | 51 | 1024.1 |
| 20260502062504 | 65 | 255 | 3.5 | 6.1 | 0.00 | 0.00 | 0.00 | 53 | 1024.1 |
| 20260502061523 | 64 | 256 | 2.6 | 5.2 | 0.00 | 0.00 | 0.00 | 57 | 1024.1 |
| 20260502060500 | 64 | 250 | 1.7 | 3.5 | 0.00 | 0.00 | 0.00 | 58 | 1024.1 |
| 20260502055457 | 62 | 261 | 1.7 | 3.5 | 0.00 | 0.00 | 0.00 | 61 | 1024.1 |
| 20260502054455 | 60 | 260 | 1.7 | 3.5 | 0.00 | 0.00 | 0.00 | 64 | 1024.1 |
| 20260502053453 | 59 | 262 | 1.7 | 3.5 | 0.00 | 0.00 | 0.00 | 68 | 1024.1 |
| 20260502052452 | 56 | 270 | 0.9 | 2.6 | 0.00 | 0.00 | 0.00 | 73 | 1024.1 |
| 20260502051450 | 53 | 270 | 1.7 | 2.6 | 0.00 | 0.00 | 0.00 | 76 | 1023.9 |
| 20260502050449 | 50 | 270 | 1.7 | 3.5 | 0.00 | 0.00 | 0.00 | 80 | 1023.9 |
| 20260502045445 | 47 | 270 | 1.7 | 3.5 | 0.00 | 0.00 | 0.00 | 79 | 1023.9 |
| 20260502044442 | 47 | 270 | 1.7 | 3.5 | 0.00 | 0.00 | 0.00 | 76 | 1023.9 |
| 20260502043441 | 47 | 270 | 1.7 | 3.5 | 0.00 | 0.00 | 0.00 | 75 | 1023.9 |
| 20260502042439 | 47 | 270 | 1.7 | 3.5 | 0.00 | 0.00 | 0.00 | 75 | 1023.9 |
| 20260502041437 | 47 | 270 | 1.7 | 3.5 | 0.00 | 0.00 | 0.00 | 75 | 1023.9 |
| 20260502040455 | 47 | 253 | 2.6 | 4.3 | 0.00 | 0.00 | 0.00 | 75 | 1023.7 |
| 20260502035433 | 47 | 253 | 2.6 | 4.3 | 0.00 | 0.00 | 0.00 | 75 | 1023.7 |
| 20260502034431 | 48 | 270 | 1.7 | 3.5 | 0.00 | 0.00 | 0.00 | 75 | 1023.8 |
| 20260502033430 | 48 | 231 | 0.9 | 3.5 | 0.00 | 0.00 | 0.00 | 74 | 1023.8 |
| 20260502032427 | 48 | 219 | 0.9 | 2.6 | 0.00 | 0.00 | 0.00 | 73 | 1023.8 |
| 20260502031425 | 48 | 250 | 1.7 | 3.5 | 0.00 | 0.00 | 0.00 | 74 | 1023.8 |
| 20260502030423 | 48 | 251 | 1.7 | 3.5 | 0.00 | 0.00 | 0.00 | 73 | 1023.8 |
| 20260502025422 | 49 | 216 | 0.9 | 2.6 | 0.00 | 0.00 | 0.00 | 73 | 1023.8 |
| 20260502024419 | 49 | 240 | 1.7 | 3.5 | 0.00 | 0.00 | 0.00 | 73 | 1023.8 |
| 20260502023417 | 49 | 254 | 1.7 | 3.5 | 0.00 | 0.00 | 0.00 | 73 | 1023.8 |
| 20260502022436 | 49 | 254 | 1.7 | 3.5 | 0.00 | 0.00 | 0.00 | 72 | 1023.8 |
| 20260502021413 | 49 | 253 | 1.7 | 3.5 | 0.00 | 0.00 | 0.00 | 73 | 1023.8 |
| 20260502020411 | 49 | 261 | 1.7 | 3.5 | 0.00 | 0.00 | 0.00 | 73 | 1023.7 |
| 20260502015410 | 49 | 244 | 1.7 | 3.5 | 0.00 | 0.00 | 0.00 | 73 | 1023.7 |
| 20260502014407 | 49 | 252 | 1.7 | 3.5 | 0.00 | 0.00 | 0.00 | 73 | 1023.7 |
| 20260502013405 | 49 | 238 | 1.7 | 3.5 | 0.00 | 0.00 | 0.00 | 72 | 1023.8 |
| 20260502012403 | 49 | 257 | 1.7 | 4.3 | 0.00 | 0.00 | 0.00 | 72 | 1023.9 |
| 20260502011401 | 49 | 238 | 1.7 | 3.5 | 0.00 | 0.00 | 0.00 | 72 | 1023.9 |
| 20260502010359 | 49 | 243 | 1.7 | 4.3 | 0.00 | 0.00 | 0.00 | 72 | 1023.8 |
| 20260502005357 | 49 | 248 | 1.7 | 4.3 | 0.00 | 0.00 | 0.00 | 71 | 1023.9 |
| 20260502004355 | 49 | 257 | 1.7 | 3.5 | 0.00 | 0.00 | 0.00 | 71 | 1024.0 |
| 20260502003353 | 50 | 241 | 0.9 | 1.7 | 0.00 | 0.00 | 0.00 | 71 | 1024.0 |
| 20260502002351 | 50 | 241 | 1.7 | 3.5 | 0.00 | 0.00 | 0.00 | 70 | 1024.0 |
| 20260502001350 | 50 | 256 | 1.7 | 3.5 | 0.00 | 0.00 | 0.00 | 70 | 1024.0 |
| 20260502000347 | 50 | 242 | 0.9 | 1.7 | 0.00 | 0.00 | 0.00 | 70 | 1024.1 |
| 20260501235345 | 50 | 237 | 1.7 | 3.5 | 0.00 | 0.00 | 0.00 | 70 | 1024.1 |
| 20260501234343 | 51 | 246 | 1.7 | 3.5 | 0.00 | 0.00 | 0.00 | 69 | 1024.1 |
| 20260501233401 | 51 | 244 | 1.7 | 2.6 | 0.00 | 0.00 | 0.00 | 69 | 1024.2 |
| 20260501232339 | 51 | 252 | 1.7 | 4.3 | 0.00 | 0.00 | 0.00 | 69 | 1024.1 |
| 20260501231336 | 52 | 257 | 1.7 | 3.5 | 0.00 | 0.00 | 0.00 | 69 | 1024.1 |
| 20260501230335 | 52 | 239 | 1.7 | 3.5 | 0.00 | 0.00 | 0.00 | 68 | 1024.1 |
| 20260501225353 | 52 | 249 | 1.7 | 2.6 | 0.00 | 0.00 | 0.00 | 68 | 1024.2 |
| 20260501224331 | 52 | 238 | 1.7 | 3.5 | 0.00 | 0.00 | 0.00 | 69 | 1024.2 |
| 20260501223329 | 52 | 240 | 1.7 | 3.5 | 0.00 | 0.00 | 0.00 | 69 | 1024.2 |
| 20260501222328 | 52 | 247 | 1.7 | 3.5 | 0.00 | 0.00 | 0.00 | 68 | 1024.3 |
| 20260501221324 | 53 | 252 | 1.7 | 3.5 | 0.00 | 0.00 | 0.00 | 67 | 1024.2 |
| 20260501220344 | 53 | 234 | 0.9 | 1.7 | 0.00 | 0.00 | 0.00 | 66 | 1024.2 |
| 20260501215321 | 53 | 228 | 0.9 | 1.7 | 0.00 | 0.00 | 0.00 | 65 | 1024.1 |
| 20260501214319 | 53 | 245 | 1.7 | 2.6 | 0.00 | 0.00 | 0.00 | 65 | 1024.1 |
| 20260501213318 | 53 | 239 | 1.7 | 3.5 | 0.00 | 0.00 | 0.00 | 65 | 1024.0 |
| 20260501212335 | 54 | 235 | 1.7 | 3.5 | 0.00 | 0.00 | 0.00 | 62 | 1024.0 |
| 20260501211314 | 54 | 220 | 1.7 | 3.5 | 0.00 | 0.00 | 0.00 | 59 | 1024.0 |
| 20260501210311 | 55 | 241 | 1.7 | 3.5 | 0.00 | 0.00 | 0.00 | 58 | 1023.9 |
| 20260501205330 | 55 | 250 | 1.7 | 3.5 | 0.00 | 0.00 | 0.00 | 58 | 1024.0 |